TimeCST,TemperatureF,Dew PointF,Humidity,Sea Level PressureIn,VisibilityMPH,Wind Direction,Wind SpeedMPH,Gust SpeedMPH,PrecipitationIn,Events,Conditions,WindDirDegrees,DateUTC
12:10 AM,21.7,19.0,89,29.49,1.8,SW,20.7,27.6,N/A,Snow,Light Snow,220,2014-01-25 06:10:00
12:35 AM,22.1,19.6,90,29.47,2.0,SW,20.7,33.4,N/A,Snow,Light Snow,220,2014-01-25 06:35:00
12:55 AM,22.8,20.3,90,29.46,2.0,SW,21.9,29.9,N/A,Snow,Light Snow,220,2014-01-25 06:55:00
1:15 AM,23.0,20.3,89,29.46,1.5,SW,19.6,28.8,N/A,Snow,Light Snow,230,2014-01-25 07:15:00
1:35 AM,23.5,21.2,91,29.45,1.8,SW,20.7,29.9,N/A,Snow,Light Snow,230,2014-01-25 07:35:00
1:55 AM,24.6,22.6,92,29.44,1.5,SW,21.9,25.3,N/A,Snow,Light Snow,230,2014-01-25 07:55:00
2:15 AM,25.2,23.2,92,29.43,1.8,SW,20.7,27.6,N/A,Snow,Light Snow,230,2014-01-25 08:15:00
2:35 AM,25.5,23.5,92,29.42,2.5,SW,18.4,27.6,N/A,Snow,Light Snow,230,2014-01-25 08:35:00
2:55 AM,26.1,24.3,93,29.42,2.0,WSW,12.7,18.4,N/A,Snow,Light Snow,250,2014-01-25 08:55:00
3:15 AM,26.6,24.8,93,29.40,2.0,SW,16.1,-,N/A,Snow,Light Snow,230,2014-01-25 09:15:00
3:35 AM,27.3,25.7,94,29.39,2.5,WSW,16.1,19.6,N/A,Snow,Light Snow,240,2014-01-25 09:35:00
3:55 AM,27.5,26.1,94,29.39,4.0,WSW,12.7,19.6,N/A,Snow,Light Snow,240,2014-01-25 09:55:00
4:15 AM,28.4,26.4,92,29.38,3.0,WSW,13.8,20.7,N/A,,Overcast,250,2014-01-25 10:15:00
4:35 AM,28.9,27.1,93,29.38,2.5,West,12.7,-,N/A,,Overcast,260,2014-01-25 10:35:00
4:55 AM,29.3,27.7,94,29.38,2.5,WSW,13.8,-,N/A,,Overcast,250,2014-01-25 10:55:00
5:15 AM,30.0,28.4,94,29.38,4.0,West,16.1,21.9,N/A,Snow,Light Snow,270,2014-01-25 11:15:00
5:35 AM,30.2,28.4,93,29.39,3.0,NW,17.3,27.6,N/A,Snow,Light Snow,310,2014-01-25 11:35:00
5:55 AM,29.7,25.2,83,29.40,10.0,NW,13.8,21.9,N/A,,Mostly Cloudy,310,2014-01-25 11:55:00
6:15 AM,28.6,21.2,74,29.41,10.0,WNW,12.7,23.0,N/A,,Scattered Clouds,300,2014-01-25 12:15:00
6:35 AM,28.8,20.8,72,29.41,10.0,WNW,10.4,18.4,N/A,,Mostly Cloudy,300,2014-01-25 12:35:00
6:55 AM,28.9,19.4,68,29.42,10.0,WNW,8.1,17.3,N/A,,Overcast,300,2014-01-25 12:55:00
7:15 AM,28.4,19.6,70,29.42,10.0,WNW,9.2,16.1,N/A,,Overcast,290,2014-01-25 13:15:00
7:35 AM,28.0,17.4,64,29.43,10.0,WNW,15.0,31.1,N/A,,Scattered Clouds,300,2014-01-25 13:35:00
7:55 AM,27.1,16.3,64,29.44,7.0,NW,18.4,29.9,N/A,,Scattered Clouds,320,2014-01-25 13:55:00
8:15 AM,25.0,10.2,54,29.46,2.5,NW,17.3,31.1,N/A,,Haze,310,2014-01-25 14:15:00
8:35 AM,25.2,7.5,47,29.46,2.5,WNW,19.6,33.4,N/A,,Haze,300,2014-01-25 14:35:00
8:55 AM,24.6,1.0,36,29.47,4.0,NW,19.6,32.2,N/A,,Haze,310,2014-01-25 14:55:00
9:15 AM,24.4,4.5,42,29.48,7.0,NW,15.0,27.6,N/A,,Mostly Cloudy,320,2014-01-25 15:15:00
9:35 AM,22.6,12.6,65,29.50,2.0,NNW,23.0,35.7,N/A,,Haze,330,2014-01-25 15:35:00
9:55 AM,21.0,11.3,66,29.52,1.8,NNW,17.3,36.8,N/A,,Haze,330,2014-01-25 15:55:00
10:15 AM,20.7,9.0,61,29.53,2.0,NW,20.7,34.5,N/A,,Haze,320,2014-01-25 16:15:00
10:35 AM,20.5,8.4,60,29.54,5.0,NW,27.6,34.5,N/A,,Haze,320,2014-01-25 16:35:00
10:55 AM,19.8,8.6,62,29.55,5.0,NNW,20.7,31.1,N/A,,Haze,330,2014-01-25 16:55:00
11:15 AM,19.2,7.2,59,29.56,3.0,NW,23.0,31.1,N/A,,Haze,320,2014-01-25 17:15:00
11:35 AM,18.9,6.8,59,29.57,7.0,NNW,17.3,31.1,N/A,,Overcast,330,2014-01-25 17:35:00
11:55 AM,18.5,6.4,59,29.58,5.0,NW,20.7,31.1,N/A,,Haze,310,2014-01-25 17:55:00
12:15 PM,18.0,6.1,60,29.60,5.0,NW,19.6,31.1,N/A,,Haze,320,2014-01-25 18:15:00
12:35 PM,17.6,4.1,56,29.60,10.0,NW,18.4,26.5,N/A,,Overcast,320,2014-01-25 18:35:00
12:55 PM,17.1,7.3,66,29.61,4.0,NW,17.3,27.6,N/A,,Haze,310,2014-01-25 18:55:00
1:15 PM,17.1,6.6,64,29.62,3.0,NW,20.7,28.8,N/A,,Haze,310,2014-01-25 19:15:00
1:35 PM,16.7,5.5,62,29.63,5.0,WNW,15.0,31.1,N/A,,Haze,300,2014-01-25 19:35:00
1:55 PM,16.7,3.9,57,29.64,10.0,WNW,12.7,26.5,N/A,,Overcast,300,2014-01-25 19:55:00
2:15 PM,15.8,3.7,59,29.65,10.0,NW,19.6,28.8,N/A,,Overcast,310,2014-01-25 20:15:00
2:35 PM,15.1,1.9,56,29.67,10.0,WNW,15.0,27.6,N/A,,Mostly Cloudy,300,2014-01-25 20:35:00
2:55 PM,15.8,1.6,54,29.67,10.0,NW,20.7,29.9,N/A,,Scattered Clouds,310,2014-01-25 20:55:00
3:15 PM,15.1,0.3,52,29.69,10.0,NW,13.8,25.3,N/A,,Clear,310,2014-01-25 21:15:00
3:35 PM,15.1,0.1,52,29.70,10.0,WNW,11.5,24.2,N/A,,Scattered Clouds,300,2014-01-25 21:35:00
3:55 PM,14.7,0.5,53,29.71,10.0,NW,12.7,26.5,N/A,,Scattered Clouds,310,2014-01-25 21:55:00
4:15 PM,14.0,-2.0,49,29.73,10.0,WNW,11.5,25.3,N/A,,Scattered Clouds,300,2014-01-25 22:15:00
4:35 PM,13.6,-2.9,48,29.73,10.0,NW,12.7,20.7,N/A,,Clear,310,2014-01-25 22:35:00
4:55 PM,13.5,-3.3,47,29.74,10.0,WNW,12.7,19.6,N/A,,Clear,290,2014-01-25 22:55:00
5:15 PM,12.9,-4.0,47,29.75,10.0,WNW,10.4,18.4,N/A,,Clear,290,2014-01-25 23:15:00
5:35 PM,12.4,-3.3,50,29.77,10.0,West,10.4,18.4,N/A,,Scattered Clouds,280,2014-01-25 23:35:00
5:55 PM,12.0,-3.6,50,29.78,10.0,West,12.7,17.3,N/A,,Scattered Clouds,280,2014-01-25 23:55:00
6:15 PM,10.9,-3.8,52,29.79,10.0,West,11.5,20.7,N/A,,Mostly Cloudy,280,2014-01-26 00:15:00
6:35 PM,11.1,-4.0,51,29.79,10.0,West,13.8,19.6,N/A,,Scattered Clouds,260,2014-01-26 00:35:00
6:55 PM,9.5,-4.7,53,29.81,10.0,West,11.5,17.3,N/A,,Scattered Clouds,260,2014-01-26 00:55:00
7:15 PM,8.8,-4.4,55,29.81,10.0,West,9.2,-,N/A,,Scattered Clouds,260,2014-01-26 01:15:00
7:35 PM,8.8,-4.9,54,29.82,10.0,WSW,11.5,-,N/A,,Scattered Clouds,250,2014-01-26 01:35:00
7:55 PM,8.8,-4.0,56,29.83,10.0,West,11.5,-,N/A,,Mostly Cloudy,260,2014-01-26 01:55:00
8:15 PM,8.6,-4.0,57,29.83,10.0,West,11.5,-,N/A,,Overcast,270,2014-01-26 02:15:00
8:35 PM,8.6,-3.3,59,29.83,10.0,West,6.9,-,N/A,,Overcast,280,2014-01-26 02:35:00
8:55 PM,9.5,-2.7,58,29.84,10.0,WNW,9.2,-,N/A,,Scattered Clouds,290,2014-01-26 02:55:00
9:15 PM,9.3,-2.4,59,29.84,10.0,West,10.4,-,N/A,,Scattered Clouds,280,2014-01-26 03:15:00
9:35 PM,8.1,-2.7,61,29.83,10.0,West,5.8,-,N/A,,Clear,260,2014-01-26 03:35:00
9:55 PM,6.4,-4.0,62,29.83,10.0,WSW,5.8,-,N/A,,Clear,240,2014-01-26 03:55:00
10:15 PM,5.5,-4.0,65,29.83,10.0,WSW,6.9,-,N/A,,Clear,250,2014-01-26 04:15:00
10:35 PM,5.7,-3.8,65,29.83,10.0,WSW,4.6,-,N/A,,Clear,240,2014-01-26 04:35:00
10:55 PM,5.0,-4.0,66,29.82,10.0,WSW,8.1,-,N/A,,Clear,240,2014-01-26 04:55:00
11:15 PM,5.7,-3.5,66,29.82,10.0,WSW,5.8,-,N/A,,Clear,250,2014-01-26 05:15:00
11:35 PM,5.0,-3.5,68,29.81,10.0,SW,4.6,-,N/A,,Clear,230,2014-01-26 05:35:00
11:55 PM,4.1,-4.0,69,29.81,10.0,SW,6.9,-,N/A,,Clear,230,2014-01-26 05:55:00